Dirección General De Aeronáutica Civil

Dirección Meteorológica de Chile - Servicios Climáticos

Informe General de Control de Calidad de la Estación

Listado de niveles de control de calidad para algunos parámetros
Estación Isla San Pedro, Armada (470002)
Fecha de Revisión de los datos :

Elementos

Registros Niveles de Control Total
Nivel 0 Nivel 1 Nivel 2 Nivel 3 Errores Porcentaje
01 Temperatura del Aire Seco 7.813 3 0.04 % 0 . 0 . 0 . 3 0.04 %
02 Temperatura de Rocío 7.815 0 . 0 . 0 . 0 . 0 0.00 %
03 Humedad Relativa del Aire 7.812 0 . 0 . 0 . 0 . 0 0.00 %
04 Temperatura Máxima PM 976 0 . 0 . 46 4.71 % 0 . 46 4.71 %
05 Temperatura Mínima AM 958 0 . 0 . 25 2.61 % 0 . 25 2.61 %
06 Viento a 10 m. de Altura 7.815 2 0.03 % 0 . 2 0.03 % 0 . 4 0.05 %
07 Agua Caida, Acumulada 6 Horas 3.895 0 . 101 2.59 % 0 . 0 . 101 2.59 %
08 Presión Atm. a Nivel de Estación (QFE) 7.815 0 . 9 0.12 % 0 . 0 . 9 0.12 %
09 Presión Atm. a Nivel Medio del Mar (QFF) 7.811 0 . 0 . 0 . 0 . 0 0.00 %
10 Tiempo Pasado Sinóptico 7.815 0 . 0 . 0 . 0 . 0 0.00 %
11 Tiempo Presente Sinóptico 7.815 0 . 8 0.10 % 0 . 0 . 8 0.10 %

Totales

68.340 . 0.0073 % . 0.1727 % . 0.1068 % . 0.0000 % 196 0.2868 %

Detalle de Errores Recientes

Fecha del Dato Descripción Información Error Fecha Ingreso
2024-07-03 15:00:00 ts > 3.0 y ( (ww >= 48 y ww <= 49) o (ww >= 56 y ww <= 57) o (ww >=66 y ww <= 67)) 67 2024-07-03 15:09:00
2024-07-03 18:00:00 ts > 3.0 y ( (ww >= 48 y ww <= 49) o (ww >= 56 y ww <= 57) o (ww >=66 y ww <= 67)) 67 2024-07-03 20:51:00
2024-07-03 21:00:00 ts > 3.0 y ( (ww >= 48 y ww <= 49) o (ww >= 56 y ww <= 57) o (ww >=66 y ww <= 67)) 67 2024-07-04 00:01:00
2024-07-19 12:00:00 Temperatura 3.2 del 19-07-2024 06:00, Menor que la Mínima 5.6 19-07-2024 12:00 3.2 -- 5.6 2024-07-19 12:46:00
2024-06-15 12:00:00 Ts (Temperatura Del Aire) debe ser numérico, entre -50.0 y 50.0 96.8 2024-06-15 12:25:00
Total de Errores Recientes 5

Detalle de Errores Encontrados

Nivel Fecha del Dato Descripción Información Error Fecha Ingreso
0 2022-04-21 12:00:00 ff (Intensidad del Viento) debe ser numerico, entre 0 y 70 kt. 130 2022-04-21 12:40:00
0 2023-02-23 15:00:00 ff (Intensidad del Viento) debe ser numerico, entre 0 y 70 kt. 85 2023-02-23 14:52:00
0 2022-05-14 15:00:00 Ts (Temperatura Del Aire) debe ser numérico, entre -50.0 y 50.0 88.0 2022-05-14 15:59:00
0 2023-10-23 09:00:00 Ts (Temperatura Del Aire) debe ser numérico, entre -50.0 y 50.0 70.0 2023-10-23 10:13:00
0 2024-06-15 12:00:00 Ts (Temperatura Del Aire) debe ser numérico, entre -50.0 y 50.0 96.8 2024-06-15 12:25:00
Errores del Nivel 5
Nivel Fecha del Dato Descripción Información Error Fecha Ingreso
1 2021-12-12 15:00:00 qfe debe ser menor o igual a qff 1004.0 - 1000.0 2021-12-12 16:23:00
1 2022-01-17 18:00:00 qfe debe ser menor o igual a qff 1021.8 - 1021.7 2022-01-17 20:51:00
1 2022-01-18 03:00:00 qfe debe ser menor o igual a qff 1029.8 - 1026.7 2022-01-18 10:49:00
1 2022-01-30 12:00:00 qfe debe ser menor o igual a qff 1020.0 - 1015.0 2022-01-30 12:40:00
1 2022-06-02 12:00:00 qfe debe ser menor o igual a qff 1013.5 - 1013.0 2022-06-02 12:21:00
1 2022-08-09 21:00:00 qfe debe ser menor o igual a qff 1009.0 - 1002.0 2022-08-10 00:58:00
1 2022-08-10 00:00:00 qfe debe ser menor o igual a qff 1009.0 - 1002.0 2022-08-10 01:41:00
1 2023-08-04 18:00:00 qfe debe ser menor o igual a qff 1020.0 - 1017.0 2023-08-04 21:44:00
1 2024-05-03 03:00:00 qfe debe ser menor o igual a qff 1003.0 - 1001.0 2024-05-03 09:16:00
1 2021-10-15 00:00:00 rrr = s/p y WW = 60 w1=5 w2=2 0.0 2021-10-15 01:08:00
1 2021-10-19 12:00:00 rrr = s/p y WW = 80 w1=8 w2=8 0.0 2021-10-19 15:22:00
1 2021-10-20 18:00:00 rrr = s/p y WW = 2 w1=6 w2=6 0.0 2021-10-20 18:42:00
1 2021-10-23 06:00:00 rrr = s/p y WW = 2 w1=6 w2=2 0.0 2021-10-23 11:21:00
1 2021-10-25 12:00:00 rrr = s/p y WW = 2 w1=5 w2=2 0.0 2021-10-25 13:04:00
1 2021-11-04 00:00:00 rrr = s/p y WW = 2 w1=5 w2=2 0.0 2021-11-04 00:57:00
1 2021-11-05 18:00:00 rrr = s/p y WW = 3 w1=8 w2=2 0.0 2021-11-05 19:49:00
1 2021-11-25 12:00:00 rrr = s/p y WW = 2 w1=5 w2=2 0.0 2021-11-25 12:18:00
1 2021-12-05 18:00:00 rrr = s/p y WW = 2 w1=5 w2=2 0.0 2021-12-05 18:22:00
1 2021-12-07 12:00:00 rrr = 2.0 y WW = 2 w1=2 w2=2 2.0 2021-12-07 15:55:00
1 2021-12-09 18:00:00 rrr = 1.2 y WW = 2 w1=2 w2=2 1.2 2021-12-09 18:25:00
1 2021-12-10 00:00:00 rrr = s/p y WW = 2 w1=5 w2=2 0.0 2021-12-10 02:00:00
1 2021-12-13 00:00:00 rrr = s/p y WW = 2 w1=5 w2=1 0.0 2021-12-13 01:07:00
1 2021-12-16 06:00:00 rrr = 0.3 y WW = 2 w1=2 w2=2 0.3 2021-12-16 10:38:00
1 2021-12-16 18:00:00 rrr = 0.2 y WW = 1 w1=1 w2=0 0.2 2021-12-16 19:49:00
1 2021-12-29 18:00:00 rrr = 1.5 y WW = 2 w1=2 w2=2 1.5 2021-12-29 19:09:00
1 2021-12-31 12:00:00 rrr = s/p y WW = 1 w1=6 w2=6 0.0 2021-12-31 12:08:00
1 2022-01-11 06:00:00 rrr = s/p y WW = 1 w1=5 w2=1 0.0 2022-01-11 10:23:00
1 2022-01-23 12:00:00 rrr = 3.2 y WW = 2 w1=2 w2=2 3.2 2022-01-23 12:46:00
1 2022-02-10 12:00:00 rrr = 0.2 y WW = 1 w1=2 w2=1 0.2 2022-02-10 13:07:00
1 2022-02-22 12:00:00 rrr = trazas y WW = 2 w1=0 w2=0 0.0 2022-02-22 12:40:00
1 2022-02-25 06:00:00 rrr = s/p y WW = 2 w1=5 w2=2 0.0 2022-02-25 10:08:00
1 2022-02-28 06:00:00 rrr = s/p y WW = 1 w1=8 w2=2 0.0 2022-02-28 11:12:00
1 2022-03-03 12:00:00 rrr = s/p y WW = 1 w1=5 w2=2 0.0 2022-03-03 11:46:00
1 2022-03-04 00:00:00 rrr = s/p y WW = 1 w1=5 w2=2 0.0 2022-03-04 04:36:00
1 2022-03-06 18:00:00 rrr = s/p y WW = 2 w1=5 w2=5 0.0 2022-03-06 20:21:00
1 2022-03-08 18:00:00 rrr = s/p y WW = 2 w1=6 w2=6 0.0 2022-03-08 21:51:00
1 2022-03-18 00:00:00 rrr = s/p y WW = 2 w1=8 w2=0 0.0 2022-03-18 01:18:00
1 2022-03-22 00:00:00 rrr = s/p y WW = 2 w1=5 w2=5 0.0 2022-03-22 00:13:00
1 2022-03-27 00:00:00 rrr = s/p y WW = 80 w1=5 w2=2 0.0 2022-03-27 04:26:00
1 2022-03-30 06:00:00 rrr = trazas y WW = 3 w1=0 w2=0 0.0 2022-03-30 10:08:00
1 2022-03-30 18:00:00 rrr = trazas y WW = 2 w1=2 w2=2 0.0 2022-03-30 18:59:00
1 2022-04-02 00:00:00 rrr = s/p y WW = 51 w1=5 w2=5 0.0 2022-04-01 23:54:00
1 2022-04-02 18:00:00 rrr = s/p y WW = 2 w1=6 w2=2 0.0 2022-04-02 18:06:00
1 2022-04-05 00:00:00 rrr = s/p y WW = 61 w1=5 w2=5 0.0 2022-04-05 05:41:00
1 2022-04-13 00:00:00 rrr = s/p y WW = 2 w1=5 w2=2 0.0 2022-04-13 00:17:00
1 2022-04-13 12:00:00 rrr = s/p y WW = 13 w1=5 w2=2 0.0 2022-04-13 13:28:00
1 2022-04-15 18:00:00 rrr = s/p y WW = 3 w1=8 w2=8 0.0 2022-04-16 00:40:00
1 2022-04-21 12:00:00 rrr = s/p y WW = 1 w1=6 w2=2 0.0 2022-04-21 12:40:00
1 2022-04-25 18:00:00 rrr = 0.2 y WW = 2 w1=2 w2=2 0.2 2022-04-25 20:05:00
1 2022-05-01 00:00:00 rrr = s/p y WW = 2 w1=5 w2=2 0.0 2022-05-01 01:35:00
1 2022-05-21 06:00:00 rrr = s/p y WW = 62 w1=6 w2=6 0.0 2022-05-21 10:23:00
1 2022-06-03 18:00:00 rrr = 1.0 y WW = 2 w1=2 w2=2 1.0 2022-06-03 18:51:00
1 2022-06-04 00:00:00 rrr = 1.5 y WW = 2 w1=2 w2=2 1.5 2022-06-04 00:56:00
1 2022-06-06 12:00:00 rrr = 1.0 y WW = 2 w1=2 w2=2 1.0 2022-06-06 16:23:00
1 2022-06-07 06:00:00 rrr = s/p y WW = 2 w1=6 w2=6 0.0 2022-06-07 10:24:00
1 2022-06-12 06:00:00 rrr = s/p y WW = 5 w1=5 w2=5 0.0 2022-06-12 07:35:00
1 2022-06-16 18:00:00 rrr = 5.0 y WW = 1 w1=2 w2=2 5.0 2022-06-16 21:17:00
1 2022-06-26 18:00:00 rrr = s/p y WW = 25 w1=2 w2=2 0.0 2022-06-26 18:15:00
1 2022-06-29 00:00:00 rrr = 0.2 y WW = 2 w1=2 w2=2 0.2 2022-06-29 00:36:00
1 2022-07-04 12:00:00 rrr = 1.8 y WW = 2 w1=2 w2=2 1.8 2022-07-04 12:29:00
1 2022-07-04 18:00:00 rrr = s/p y WW = 60 w1=6 w2=6 0.0 2022-07-04 19:35:00
1 2022-07-18 06:00:00 rrr = 0.5 y WW = 2 w1=2 w2=2 0.5 2022-07-18 10:37:00
1 2022-07-20 12:00:00 rrr = 2.4 y WW = 1 w1=2 w2=2 2.4 2022-07-20 12:39:00
1 2022-07-29 00:00:00 rrr = 0.1 y WW = 2 w1=2 w2=2 0.1 2022-08-06 00:12:00
1 2022-08-10 06:00:00 rrr = s/p y WW = 65 w1=6 w2=6 0.0 2022-08-10 09:34:00
1 2022-08-17 06:00:00 rrr = s/p y WW = 2 w1=5 w2=5 0.0 2022-08-17 09:37:00
1 2022-08-21 12:00:00 rrr = 0.6 y WW = 2 w1=2 w2=2 0.6 2022-08-21 12:37:00
1 2022-08-27 00:00:00 rrr = 1.5 y WW = 2 w1=2 w2=2 1.5 2022-08-27 02:41:00
1 2022-08-29 00:00:00 rrr = 1.0 y WW = 2 w1=2 w2=2 1.0 2022-08-29 01:00:00
1 2022-08-31 12:00:00 rrr = s/p y WW = 50 w1=5 w2=2 0.0 2022-08-31 12:38:00
1 2022-09-17 06:00:00 rrr = 0.2 y WW = 2 w1=0 w2=0 0.2 2022-09-17 10:50:00
1 2022-09-24 12:00:00 rrr = s/p y WW = 2 w1=6 w2=1 0.0 2022-09-24 12:07:00
1 2022-10-18 12:00:00 rrr = s/p y WW = 50 w1=5 w2=5 0.0 2022-10-18 12:30:00
1 2022-10-22 06:00:00 rrr = s/p y WW = 3 w1=5 w2=2 0.0 2022-10-22 11:18:00
1 2022-12-02 18:00:00 rrr = 0.3 y WW = 15 w1=2 w2=2 0.3 2022-12-03 02:07:00
1 2022-12-07 12:00:00 rrr = s/p y WW = 2 w1=5 w2=2 0.0 2022-12-07 14:00:00
1 2022-12-18 18:00:00 rrr = 0.5 y WW = 2 w1=2 w2=2 0.5 2022-12-18 18:52:00
1 2023-02-09 06:00:00 rrr = 1.0 y WW = 2 w1=2 w2=2 1.0 2023-02-09 10:17:00
1 2023-02-12 00:00:00 rrr = 24.0 y WW = 2 w1=2 w2=2 24.0 2023-02-12 02:18:00
1 2023-02-22 06:00:00 rrr = s/p y WW = 2 w1=5 w2=2 0.0 2023-02-22 06:24:00
1 2023-02-23 00:00:00 rrr = 3.0 y WW = 3 w1=2 w2=2 3.0 2023-02-23 01:01:00
1 2023-02-26 06:00:00 rrr = s/p y WW = 2 w1=6 w2=6 0.0 2023-02-26 10:15:00
1 2023-03-19 18:00:00 rrr = 2.0 y WW = 1 w1=2 w2=1 2.0 2023-03-19 18:44:00
1 2023-03-28 00:00:00 rrr = 2.0 y WW = 2 w1=2 w2=2 2.0 2023-03-28 01:17:00
1 2023-03-28 12:00:00 rrr = 2.0 y WW = 2 w1=2 w2=1 2.0 2023-03-28 13:35:00
1 2023-04-02 12:00:00 rrr = 0.5 y WW = 2 w1=2 w2=2 0.5 2023-04-02 13:54:00
1 2023-04-24 06:00:00 rrr = 0.1 y WW = 2 w1=2 w2=2 0.1 2023-04-24 09:21:00
1 2023-04-24 12:00:00 rrr = 0.4 y WW = 2 w1=2 w2=2 0.4 2023-04-24 13:02:00
1 2023-05-30 06:00:00 rrr = s/p y WW = 60 w1=6 w2=5 0.0 2023-05-30 12:25:00
1 2023-06-11 00:00:00 rrr = s/p y WW = 50 w1=5 w2=2 0.0 2023-06-11 01:08:00
1 2023-06-18 06:00:00 rrr = s/p y WW = 2 w1=6 w2=2 0.0 2023-06-18 06:15:00
1 2023-06-28 12:00:00 rrr = 3.0 y WW = 2 w1=2 w2=2 3.0 2023-06-28 12:30:00
1 2023-07-05 18:00:00 rrr = 6.1 y WW = 1 w1=2 w2=2 6.1 2023-07-05 18:22:00
1 2023-07-06 00:00:00 rrr = 0.3 y WW = 1 w1=2 w2=2 0.3 2023-07-06 00:53:00
1 2023-07-20 00:00:00 rrr = s/p y WW = 60 w1=6 w2=6 0.0 2023-07-20 00:36:00
1 2023-08-21 00:00:00 rrr = s/p y WW = 60 w1=6 w2=6 0.0 2023-08-21 12:12:00
1 2023-10-01 12:00:00 rrr = s/p y WW = 1 w1=8 w2=2 0.0 2023-10-01 12:42:00
1 2023-10-09 18:00:00 rrr = 2.0 y WW = 1 w1=2 w2=2 2.0 2023-10-09 19:15:00
1 2023-10-21 06:00:00 rrr = s/p y WW = 1 w1=5 w2=2 0.0 2023-10-21 10:24:00
1 2023-11-29 06:00:00 rrr = s/p y WW = 2 w1=5 w2=2 0.0 2023-11-29 10:30:00
1 2023-12-11 12:00:00 rrr = s/p y WW = 2 w1=6 w2=2 0.0 2023-12-11 13:41:00
1 2023-12-27 06:00:00 rrr = 0.1 y WW = 2 w1=2 w2=0 0.1 2023-12-27 10:10:00
1 2024-03-04 00:00:00 rrr = s/p y WW = 3 w1=5 w2=2 0.0 2024-03-04 01:17:00
1 2024-03-24 06:00:00 rrr = s/p y WW = 2 w1=5 w2=2 0.0 2024-03-24 09:34:00
1 2024-03-27 18:00:00 rrr = s/p y WW = 1 w1=5 w2=1 0.0 2024-03-27 18:26:00
1 2024-04-20 06:00:00 rrr = s/p y WW = 60 w1=6 w2=2 0.0 2024-04-20 09:44:00
1 2024-04-20 12:00:00 rrr = s/p y WW = 3 w1=6 w2=0 0.0 2024-04-20 12:58:00
1 2024-04-20 18:00:00 rrr = s/p y WW = 21 w1=2 w2=1 0.0 2024-04-20 18:54:00
1 2024-04-24 18:00:00 rrr = s/p y WW = 2 w1=6 w2=5 0.0 2024-04-24 19:51:00
1 2024-04-28 06:00:00 rrr = s/p y WW = 2 w1=6 w2=2 0.0 2024-04-28 08:54:00
1 2022-04-24 18:00:00 ts > 5.0 y ((ww >= 70 y ww <= 79) || (ww >= 85 y ww <= 88))) 88 2022-04-24 18:49:00
1 2022-05-22 21:00:00 ts > 3.0 y ( (ww >= 48 y ww <= 49) o (ww >= 56 y ww <= 57) o (ww >=66 y ww <= 67)) 67 2022-05-22 21:46:00
1 2022-09-03 06:00:00 ts > 3.0 y ( (ww >= 48 y ww <= 49) o (ww >= 56 y ww <= 57) o (ww >=66 y ww <= 67)) 56 2022-09-03 11:20:00
1 2023-03-27 00:00:00 ts > 3.0 y ( (ww >= 48 y ww <= 49) o (ww >= 56 y ww <= 57) o (ww >=66 y ww <= 67)) 66 2023-03-27 02:32:00
1 2023-05-15 21:00:00 ts > 3.0 y ( (ww >= 48 y ww <= 49) o (ww >= 56 y ww <= 57) o (ww >=66 y ww <= 67)) 66 2023-05-15 21:48:00
1 2024-07-03 15:00:00 ts > 3.0 y ( (ww >= 48 y ww <= 49) o (ww >= 56 y ww <= 57) o (ww >=66 y ww <= 67)) 67 2024-07-03 15:09:00
1 2024-07-03 18:00:00 ts > 3.0 y ( (ww >= 48 y ww <= 49) o (ww >= 56 y ww <= 57) o (ww >=66 y ww <= 67)) 67 2024-07-03 20:51:00
1 2024-07-03 21:00:00 ts > 3.0 y ( (ww >= 48 y ww <= 49) o (ww >= 56 y ww <= 57) o (ww >=66 y ww <= 67)) 67 2024-07-04 00:01:00
Errores del Nivel 118
Nivel Fecha del Dato Descripción Información Error Fecha Ingreso
2 2021-12-23 00:00:00 Temperatura 22.2 del 22-12-2021 21:00, Mayor que la Máxima 22.0 23-12-2021 00:00 22.2 -- 22.0 2021-12-23 00:56:00
2 2022-02-16 00:00:00 Temperatura 11.8 del 15-02-2022 15:00, Mayor que la Máxima 11.6 16-02-2022 00:00 11.8 -- 11.6 2022-02-16 00:57:00
2 2022-03-21 00:00:00 Temperatura 12.3 del 20-03-2022 15:00, Mayor que la Máxima 12.0 21-03-2022 00:00 12.3 -- 12.0 2022-03-21 01:59:00
2 2022-03-30 00:00:00 Temperatura 14.4 del 29-03-2022 21:00, Mayor que la Máxima 13.0 30-03-2022 00:00 14.4 -- 13.0 2022-03-30 05:22:00
2 2022-05-15 00:00:00 Temperatura 88.0 del 14-05-2022 15:00, Mayor que la Máxima 10.0 15-05-2022 00:00 88.0 -- 10.0 2022-05-15 00:43:00
2 2022-08-07 00:00:00 Temperatura 8.0 del 06-08-2022 18:00, Mayor que la Máxima 7.4 07-08-2022 00:00 8.0 -- 7.4 2022-08-07 01:30:00
2 2022-08-18 00:00:00 Temperatura 7.8 del 17-08-2022 18:00, Mayor que la Máxima 6.8 18-08-2022 00:00 7.8 -- 6.8 2022-08-18 00:03:00
2 2022-09-14 00:00:00 Temperatura 8.4 del 13-09-2022 15:00, Mayor que la Máxima 8.2 14-09-2022 00:00 8.4 -- 8.2 2022-09-14 01:01:00
2 2022-09-23 00:00:00 Temperatura 8.4 del 22-09-2022 18:00, Mayor que la Máxima 7.0 23-09-2022 00:00 8.4 -- 7.0 2022-09-23 03:22:00
2 2022-10-01 00:00:00 Temperatura 9.8 del 30-09-2022 15:00, Mayor que la Máxima 8.0 01-10-2022 00:00 9.8 -- 8.0 2022-10-01 00:35:00
2 2022-10-05 00:00:00 Temperatura 9.8 del 04-10-2022 18:00, Mayor que la Máxima 8.0 05-10-2022 00:00 9.8 -- 8.0 2022-10-05 00:24:00
2 2022-10-13 00:00:00 Temperatura 8.6 del 12-10-2022 15:00, Mayor que la Máxima 6.0 13-10-2022 00:00 8.6 -- 6.0 2022-10-13 00:13:00
2 2022-10-21 00:00:00 Temperatura 10.0 del 20-10-2022 18:00, Mayor que la Máxima 6.0 21-10-2022 00:00 10.0 -- 6.0 2022-10-21 00:31:00
2 2022-10-22 00:00:00 Temperatura 8.9 del 21-10-2022 18:00, Mayor que la Máxima 8.6 22-10-2022 00:00 8.9 -- 8.6 2022-10-22 01:07:00
2 2022-10-29 00:00:00 Temperatura 8.8 del 28-10-2022 18:00, Mayor que la Máxima 6.0 29-10-2022 00:00 8.8 -- 6.0 2022-10-29 02:39:00
2 2022-11-02 00:00:00 Temperatura 10.2 del 01-11-2022 21:00, Mayor que la Máxima 10.0 02-11-2022 00:00 10.2 -- 10.0 2022-11-02 00:40:00
2 2023-03-11 00:00:00 Temperatura 12.2 del 10-03-2023 15:00, Mayor que la Máxima 12.0 11-03-2023 00:00 12.2 -- 12.0 2023-03-11 00:54:00
2 2023-03-26 00:00:00 Temperatura 11.1 del 25-03-2023 18:00, Mayor que la Máxima 10.5 26-03-2023 00:00 11.1 -- 10.5 2023-03-26 00:26:00
2 2023-05-13 00:00:00 Temperatura 10.2 del 12-05-2023 15:00, Mayor que la Máxima 10.0 13-05-2023 00:00 10.2 -- 10.0 2023-05-13 00:26:00
2 2023-05-16 00:00:00 Temperatura 11.0 del 15-05-2023 15:00, Mayor que la Máxima 10.5 16-05-2023 00:00 11.0 -- 10.5 2023-05-16 00:25:00
2 2023-06-26 00:00:00 Temperatura 7.4 del 25-06-2023 18:00, Mayor que la Máxima 7.0 26-06-2023 00:00 7.4 -- 7.0 2023-06-26 00:57:00
2 2023-07-15 00:00:00 Temperatura 5.1 del 14-07-2023 15:00, Mayor que la Máxima 4.0 15-07-2023 00:00 5.1 -- 4.0 2023-07-15 00:36:00
2 2023-07-18 00:00:00 Temperatura 2.2 del 17-07-2023 18:00, Mayor que la Máxima 2.0 18-07-2023 00:00 2.2 -- 2.0 2023-07-18 01:16:00
2 2023-07-19 00:00:00 Temperatura 2.1 del 18-07-2023 18:00, Mayor que la Máxima 2.0 19-07-2023 00:00 2.1 -- 2.0 2023-07-19 01:49:00
2 2023-07-29 00:00:00 Temperatura 9.8 del 28-07-2023 18:00, Mayor que la Máxima 9.6 29-07-2023 00:00 9.8 -- 9.6 2023-07-29 03:07:00
2 2023-08-02 00:00:00 Temperatura 36.0 del 01-08-2023 18:00, Mayor que la Máxima 7.0 02-08-2023 00:00 36.0 -- 7.0 2023-08-02 01:10:00
2 2023-09-11 00:00:00 Temperatura 9.8 del 10-09-2023 18:00, Mayor que la Máxima 6.8 11-09-2023 00:00 9.8 -- 6.8 2023-09-11 00:52:00
2 2023-10-15 00:00:00 Temperatura 10.2 del 14-10-2023 18:00, Mayor que la Máxima 10.0 15-10-2023 00:00 10.2 -- 10.0 2023-10-15 02:59:00
2 2023-10-21 00:00:00 Temperatura 12.0 del 20-10-2023 18:00, Mayor que la Máxima 10.5 21-10-2023 00:00 12.0 -- 10.5 2023-10-21 00:53:00
2 2023-11-16 00:00:00 Temperatura 9.2 del 15-11-2023 21:00, Mayor que la Máxima 9.0 16-11-2023 00:00 9.2 -- 9.0 2023-11-16 00:48:00
2 2023-12-13 00:00:00 Temperatura 10.0 del 12-12-2023 18:00, Mayor que la Máxima 9.5 13-12-2023 00:00 10.0 -- 9.5 2023-12-13 00:36:00
2 2023-12-15 00:00:00 Temperatura 8.9 del 14-12-2023 18:00, Mayor que la Máxima 8.7 15-12-2023 00:00 8.9 -- 8.7 2023-12-15 01:54:00
2 2023-12-21 00:00:00 Temperatura 15.5 del 20-12-2023 18:00, Mayor que la Máxima 15.0 21-12-2023 00:00 15.5 -- 15.0 2023-12-21 02:37:00
2 2023-12-29 00:00:00 Temperatura 15.6 del 28-12-2023 21:00, Mayor que la Máxima 15.0 29-12-2023 00:00 15.6 -- 15.0 2023-12-29 01:55:00
2 2023-12-30 00:00:00 Temperatura 16.4 del 29-12-2023 18:00, Mayor que la Máxima 16.0 30-12-2023 00:00 16.4 -- 16.0 2023-12-30 01:17:00
2 2024-01-02 00:00:00 Temperatura 17.6 del 01-01-2024 18:00, Mayor que la Máxima 17.0 02-01-2024 00:00 17.6 -- 17.0 2024-01-02 00:54:00
2 2024-01-02 00:00:00 Temperatura 17.6 del 01-01-2024 18:00, Mayor que la Máxima 17.0 02-01-2024 00:00 17.6 -- 17.0 2024-01-02 00:54:00
2 2024-01-08 00:00:00 Temperatura 14.3 del 07-01-2024 21:00, Mayor que la Máxima 14.0 08-01-2024 00:00 14.3 -- 14.0 2024-01-08 00:20:00
2 2024-01-11 00:00:00 Temperatura 16.4 del 10-01-2024 21:00, Mayor que la Máxima 13.0 11-01-2024 00:00 16.4 -- 13.0 2024-01-11 01:17:00
2 2024-01-31 00:00:00 Temperatura 13.4 del 30-01-2024 15:00, Mayor que la Máxima 13.0 31-01-2024 00:00 13.4 -- 13.0 2024-01-31 01:13:00
2 2024-02-01 00:00:00 Temperatura 16.3 del 31-01-2024 18:00, Mayor que la Máxima 16.0 01-02-2024 00:00 16.3 -- 16.0 2024-02-01 00:24:00
2 2024-03-18 00:00:00 Temperatura 9.4 del 17-03-2024 18:00, Mayor que la Máxima 8.0 18-03-2024 00:00 9.4 -- 8.0 2024-03-18 03:09:00
2 2024-03-23 00:00:00 Temperatura 12.6 del 22-03-2024 18:00, Mayor que la Máxima 12.0 23-03-2024 00:00 12.6 -- 12.0 2024-03-23 01:14:00
2 2024-04-25 00:00:00 Temperatura 11.0 del 24-04-2024 18:00, Mayor que la Máxima 10.6 25-04-2024 00:00 11.0 -- 10.6 2024-04-25 03:17:00
2 2024-04-26 00:00:00 Temperatura 9.7 del 25-04-2024 15:00, Mayor que la Máxima 8.6 26-04-2024 00:00 9.7 -- 8.6 2024-04-26 00:40:00
2 2024-05-04 00:00:00 Temperatura 9.2 del 03-05-2024 15:00, Mayor que la Máxima 5.5 04-05-2024 00:00 9.2 -- 5.5 2024-05-04 01:32:00
2 2021-11-26 12:00:00 Temperatura 5.6 del 26-11-2021 09:00, Menor que la Mínima 6.0 26-11-2021 12:00 5.6 -- 6.0 2021-11-26 13:24:00
2 2021-12-10 12:00:00 Temperatura 10.0 del 10-12-2021 03:00, Menor que la Mínima 10.2 10-12-2021 12:00 10.0 -- 10.2 2021-12-10 16:47:00
2 2021-12-11 12:00:00 Temperatura 9.0 del 11-12-2021 09:00, Menor que la Mínima 9.5 11-12-2021 12:00 9.0 -- 9.5 2021-12-11 12:12:00
2 2022-01-17 12:00:00 Temperatura 7.4 del 17-01-2022 06:00, Menor que la Mínima 8.1 17-01-2022 12:00 7.4 -- 8.1 2022-01-17 12:32:00
2 2022-05-07 12:00:00 Temperatura 10.2 del 07-05-2022 03:00, Menor que la Mínima 11.4 07-05-2022 12:00 10.2 -- 11.4 2022-05-07 14:44:00
2 2022-05-15 12:00:00 Temperatura 5.8 del 15-05-2022 09:00, Menor que la Mínima 6.0 15-05-2022 12:00 5.8 -- 6.0 2022-05-15 12:24:00
2 2022-06-07 12:00:00 Temperatura 6.7 del 07-06-2022 09:00, Menor que la Mínima 6.8 07-06-2022 12:00 6.7 -- 6.8 2022-06-07 13:12:00
2 2022-07-02 12:00:00 Temperatura 4.8 del 02-07-2022 03:00, Menor que la Mínima 6.4 02-07-2022 12:00 4.8 -- 6.4 2022-07-02 12:08:00
2 2022-10-27 12:00:00 Temperatura 8.0 del 27-10-2022 09:00, Menor que la Mínima 8.2 27-10-2022 12:00 8.0 -- 8.2 2022-10-27 12:10:00
2 2022-10-31 12:00:00 Temperatura 5.0 del 31-10-2022 06:00, Menor que la Mínima 5.2 31-10-2022 12:00 5.0 -- 5.2 2022-10-31 12:12:00
2 2023-07-16 12:00:00 Temperatura 0.8 del 16-07-2023 09:00, Menor que la Mínima 1.0 16-07-2023 12:00 0.8 -- 1.0 2023-07-16 13:28:00
2 2023-07-18 12:00:00 Temperatura 0.6 del 18-07-2023 09:00, Menor que la Mínima 1.0 18-07-2023 12:00 0.6 -- 1.0 2023-07-18 12:18:00
2 2023-07-29 12:00:00 Temperatura 6.8 del 29-07-2023 09:00, Menor que la Mínima 7.0 29-07-2023 12:00 6.8 -- 7.0 2023-07-29 12:29:00
2 2023-11-28 12:00:00 Temperatura 8.0 del 28-11-2023 09:00, Menor que la Mínima 8.6 28-11-2023 12:00 8.0 -- 8.6 2023-11-28 13:15:00
2 2023-12-03 12:00:00 Temperatura 5.5 del 03-12-2023 09:00, Menor que la Mínima 6.8 03-12-2023 12:00 5.5 -- 6.8 2023-12-03 13:43:00
2 2023-12-09 12:00:00 Temperatura 6.2 del 09-12-2023 09:00, Menor que la Mínima 7.0 09-12-2023 12:00 6.2 -- 7.0 2023-12-09 13:44:00
2 2023-12-11 12:00:00 Temperatura 7.1 del 11-12-2023 09:00, Menor que la Mínima 7.5 11-12-2023 12:00 7.1 -- 7.5 2023-12-11 13:41:00
2 2024-01-08 12:00:00 Temperatura 7.2 del 08-01-2024 09:00, Menor que la Mínima 7.6 08-01-2024 12:00 7.2 -- 7.6 2024-01-08 12:38:00
2 2024-03-01 12:00:00 Temperatura 11.0 del 01-03-2024 06:00, Menor que la Mínima 12.0 01-03-2024 12:00 11.0 -- 12.0 2024-03-01 12:55:00
2 2024-03-18 12:00:00 Temperatura 6.6 del 18-03-2024 03:00, Menor que la Mínima 8.0 18-03-2024 12:00 6.6 -- 8.0 2024-03-18 13:18:00
2 2024-04-09 12:00:00 Temperatura 4.5 del 09-04-2024 06:00, Menor que la Mínima 6.7 09-04-2024 12:00 4.5 -- 6.7 2024-04-13 09:36:00
2 2024-04-18 12:00:00 Temperatura 9.0 del 18-04-2024 06:00, Menor que la Mínima 10.0 18-04-2024 12:00 9.0 -- 10.0 2024-04-18 12:29:00
2 2024-04-26 12:00:00 Temperatura 3.0 del 26-04-2024 03:00, Menor que la Mínima 4.2 26-04-2024 12:00 3.0 -- 4.2 2024-04-26 12:49:00
2 2024-04-27 12:00:00 Temperatura 5.0 del 27-04-2024 06:00, Menor que la Mínima 6.5 27-04-2024 12:00 5.0 -- 6.5 2024-04-27 13:02:00
2 2024-07-19 12:00:00 Temperatura 3.2 del 19-07-2024 06:00, Menor que la Mínima 5.6 19-07-2024 12:00 3.2 -- 5.6 2024-07-19 12:46:00
2 2022-04-21 12:00:00 Variación Tri-horaria de Intensidad del viento fuera de rango (3 hora Antes) 130 - 5 2022-04-21 12:40:00
2 2022-04-21 15:00:00 Variación Tri-horaria de Intensidad del viento fuera de rango (3 hora Antes) 0 - 130 2022-04-21 18:11:00
Errores del Nivel 73
Informe generado el 23-07-2024 17:51
Requerimiento: RE6001